﻿_id,datum,uhrzeit_start,uhrzeit_ende,zaehlstelle,richtung_1,richtung_2,gesamt
1,2022.08.01,00:00:00,00:15:00,Arnulf,4,0,4
2,2022.08.01,00:15:00,00:30:00,Arnulf,1,1,2
3,2022.08.01,00:30:00,00:45:00,Arnulf,1,2,3
4,2022.08.01,00:45:00,01:00:00,Arnulf,3,0,3
5,2022.08.01,01:00:00,01:15:00,Arnulf,2,1,3
6,2022.08.01,01:15:00,01:30:00,Arnulf,0,0,0
7,2022.08.01,01:30:00,01:45:00,Arnulf,1,0,1
8,2022.08.01,01:45:00,02:00:00,Arnulf,2,0,2
9,2022.08.01,02:00:00,02:15:00,Arnulf,0,0,0
10,2022.08.01,02:15:00,02:30:00,Arnulf,0,0,0
11,2022.08.01,02:30:00,02:45:00,Arnulf,0,0,0
12,2022.08.01,02:45:00,03:00:00,Arnulf,2,0,2
13,2022.08.01,03:00:00,03:15:00,Arnulf,1,0,1
14,2022.08.01,03:15:00,03:30:00,Arnulf,1,0,1
15,2022.08.01,03:30:00,03:45:00,Arnulf,0,0,0
16,2022.08.01,03:45:00,04:00:00,Arnulf,1,0,1
17,2022.08.01,04:00:00,04:15:00,Arnulf,0,0,0
18,2022.08.01,04:15:00,04:30:00,Arnulf,0,1,1
19,2022.08.01,04:30:00,04:45:00,Arnulf,1,0,1
20,2022.08.01,04:45:00,05:00:00,Arnulf,2,1,3
21,2022.08.01,05:00:00,05:15:00,Arnulf,3,0,3
22,2022.08.01,05:15:00,05:30:00,Arnulf,6,0,6
23,2022.08.01,05:30:00,05:45:00,Arnulf,5,0,5
24,2022.08.01,05:45:00,06:00:00,Arnulf,3,1,4
25,2022.08.01,06:00:00,06:15:00,Arnulf,6,0,6
26,2022.08.01,06:15:00,06:30:00,Arnulf,7,2,9
27,2022.08.01,06:30:00,06:45:00,Arnulf,10,0,10
28,2022.08.01,06:45:00,07:00:00,Arnulf,19,0,19
29,2022.08.01,07:00:00,07:15:00,Arnulf,21,1,22
30,2022.08.01,07:15:00,07:30:00,Arnulf,27,0,27
31,2022.08.01,07:30:00,07:45:00,Arnulf,41,0,41
32,2022.08.01,07:45:00,08:00:00,Arnulf,43,1,44
33,2022.08.01,08:00:00,08:15:00,Arnulf,49,1,50
34,2022.08.01,08:15:00,08:30:00,Arnulf,64,0,64
35,2022.08.01,08:30:00,08:45:00,Arnulf,79,1,80
36,2022.08.01,08:45:00,09:00:00,Arnulf,67,1,68
37,2022.08.01,09:00:00,09:15:00,Arnulf,31,0,31
38,2022.08.01,09:15:00,09:30:00,Arnulf,49,2,51
39,2022.08.01,09:30:00,09:45:00,Arnulf,26,2,28
40,2022.08.01,09:45:00,10:00:00,Arnulf,35,2,37
41,2022.08.01,10:00:00,10:15:00,Arnulf,31,1,32
42,2022.08.01,10:15:00,10:30:00,Arnulf,28,2,30
43,2022.08.01,10:30:00,10:45:00,Arnulf,26,2,28
44,2022.08.01,10:45:00,11:00:00,Arnulf,27,0,27
45,2022.08.01,11:00:00,11:15:00,Arnulf,22,0,22
46,2022.08.01,11:15:00,11:30:00,Arnulf,26,0,26
47,2022.08.01,11:30:00,11:45:00,Arnulf,17,2,19
48,2022.08.01,11:45:00,12:00:00,Arnulf,30,0,30
49,2022.08.01,12:00:00,12:15:00,Arnulf,29,1,30
50,2022.08.01,12:15:00,12:30:00,Arnulf,14,0,14
51,2022.08.01,12:30:00,12:45:00,Arnulf,16,0,16
52,2022.08.01,12:45:00,13:00:00,Arnulf,14,0,14
53,2022.08.01,13:00:00,13:15:00,Arnulf,18,1,19
54,2022.08.01,13:15:00,13:30:00,Arnulf,21,1,22
55,2022.08.01,13:30:00,13:45:00,Arnulf,25,0,25
56,2022.08.01,13:45:00,14:00:00,Arnulf,25,5,30
57,2022.08.01,14:00:00,14:15:00,Arnulf,22,3,25
58,2022.08.01,14:15:00,14:30:00,Arnulf,20,1,21
59,2022.08.01,14:30:00,14:45:00,Arnulf,17,4,21
60,2022.08.01,14:45:00,15:00:00,Arnulf,27,1,28
61,2022.08.01,15:00:00,15:15:00,Arnulf,18,3,21
62,2022.08.01,15:15:00,15:30:00,Arnulf,17,0,17
63,2022.08.01,15:30:00,15:45:00,Arnulf,13,0,13
64,2022.08.01,15:45:00,16:00:00,Arnulf,23,3,26
65,2022.08.01,16:00:00,16:15:00,Arnulf,19,3,22
66,2022.08.01,16:15:00,16:30:00,Arnulf,20,1,21
67,2022.08.01,16:30:00,16:45:00,Arnulf,35,3,38
68,2022.08.01,16:45:00,17:00:00,Arnulf,40,2,42
69,2022.08.01,17:00:00,17:15:00,Arnulf,33,1,34
70,2022.08.01,17:15:00,17:30:00,Arnulf,44,2,46
71,2022.08.01,17:30:00,17:45:00,Arnulf,50,1,51
72,2022.08.01,17:45:00,18:00:00,Arnulf,53,3,56
73,2022.08.01,18:00:00,18:15:00,Arnulf,55,5,60
74,2022.08.01,18:15:00,18:30:00,Arnulf,42,0,42
75,2022.08.01,18:30:00,18:45:00,Arnulf,24,7,31
76,2022.08.01,18:45:00,19:00:00,Arnulf,40,2,42
77,2022.08.01,19:00:00,19:15:00,Arnulf,27,0,27
78,2022.08.01,19:15:00,19:30:00,Arnulf,22,3,25
79,2022.08.01,19:30:00,19:45:00,Arnulf,10,0,10
80,2022.08.01,19:45:00,20:00:00,Arnulf,20,1,21
81,2022.08.01,20:00:00,20:15:00,Arnulf,19,2,21
82,2022.08.01,20:15:00,20:30:00,Arnulf,15,1,16
83,2022.08.01,20:30:00,20:45:00,Arnulf,11,2,13
84,2022.08.01,20:45:00,21:00:00,Arnulf,13,2,15
85,2022.08.01,21:00:00,21:15:00,Arnulf,10,1,11
86,2022.08.01,21:15:00,21:30:00,Arnulf,12,1,13
87,2022.08.01,21:30:00,21:45:00,Arnulf,10,2,12
88,2022.08.01,21:45:00,22:00:00,Arnulf,7,1,8
89,2022.08.01,22:00:00,22:15:00,Arnulf,9,0,9
90,2022.08.01,22:15:00,22:30:00,Arnulf,10,0,10
91,2022.08.01,22:30:00,22:45:00,Arnulf,24,0,24
92,2022.08.01,22:45:00,23:00:00,Arnulf,8,0,8
93,2022.08.01,23:00:00,23:15:00,Arnulf,8,0,8
94,2022.08.01,23:15:00,23:30:00,Arnulf,9,2,11
95,2022.08.01,23:30:00,23:45:00,Arnulf,4,0,4
96,2022.08.01,23:45:00,00:00:00,Arnulf,1,0,1
97,2022.08.02,00:00:00,00:15:00,Arnulf,2,0,2
98,2022.08.02,00:15:00,00:30:00,Arnulf,3,0,3
99,2022.08.02,00:30:00,00:45:00,Arnulf,0,0,0
100,2022.08.02,00:45:00,01:00:00,Arnulf,5,0,5
101,2022.08.02,01:00:00,01:15:00,Arnulf,0,1,1
102,2022.08.02,01:15:00,01:30:00,Arnulf,0,0,0
103,2022.08.02,01:30:00,01:45:00,Arnulf,1,0,1
104,2022.08.02,01:45:00,02:00:00,Arnulf,2,0,2
105,2022.08.02,02:00:00,02:15:00,Arnulf,1,0,1
106,2022.08.02,02:15:00,02:30:00,Arnulf,0,0,0
107,2022.08.02,02:30:00,02:45:00,Arnulf,0,0,0
108,2022.08.02,02:45:00,03:00:00,Arnulf,2,0,2
109,2022.08.02,03:00:00,03:15:00,Arnulf,0,1,1
110,2022.08.02,03:15:00,03:30:00,Arnulf,2,0,2
111,2022.08.02,03:30:00,03:45:00,Arnulf,1,0,1
112,2022.08.02,03:45:00,04:00:00,Arnulf,0,0,0
113,2022.08.02,04:00:00,04:15:00,Arnulf,0,1,1
114,2022.08.02,04:15:00,04:30:00,Arnulf,2,1,3
115,2022.08.02,04:30:00,04:45:00,Arnulf,1,0,1
116,2022.08.02,04:45:00,05:00:00,Arnulf,0,1,1
117,2022.08.02,05:00:00,05:15:00,Arnulf,4,0,4
118,2022.08.02,05:15:00,05:30:00,Arnulf,4,0,4
119,2022.08.02,05:30:00,05:45:00,Arnulf,4,0,4
120,2022.08.02,05:45:00,06:00:00,Arnulf,5,0,5
121,2022.08.02,06:00:00,06:15:00,Arnulf,4,0,4
122,2022.08.02,06:15:00,06:30:00,Arnulf,6,3,9
123,2022.08.02,06:30:00,06:45:00,Arnulf,18,2,20
124,2022.08.02,06:45:00,07:00:00,Arnulf,18,0,18
125,2022.08.02,07:00:00,07:15:00,Arnulf,30,5,35
126,2022.08.02,07:15:00,07:30:00,Arnulf,31,1,32
127,2022.08.02,07:30:00,07:45:00,Arnulf,48,1,49
128,2022.08.02,07:45:00,08:00:00,Arnulf,55,0,55
129,2022.08.02,08:00:00,08:15:00,Arnulf,50,0,50
130,2022.08.02,08:15:00,08:30:00,Arnulf,70,2,72
131,2022.08.02,08:30:00,08:45:00,Arnulf,72,3,75
132,2022.08.02,08:45:00,09:00:00,Arnulf,67,3,70
133,2022.08.02,09:00:00,09:15:00,Arnulf,46,2,48
134,2022.08.02,09:15:00,09:30:00,Arnulf,46,0,46
135,2022.08.02,09:30:00,09:45:00,Arnulf,23,1,24
136,2022.08.02,09:45:00,10:00:00,Arnulf,36,0,36
137,2022.08.02,10:00:00,10:15:00,Arnulf,23,2,25
138,2022.08.02,10:15:00,10:30:00,Arnulf,18,0,18
139,2022.08.02,10:30:00,10:45:00,Arnulf,21,1,22
140,2022.08.02,10:45:00,11:00:00,Arnulf,27,0,27
141,2022.08.02,11:00:00,11:15:00,Arnulf,18,2,20
142,2022.08.02,11:15:00,11:30:00,Arnulf,22,2,24
143,2022.08.02,11:30:00,11:45:00,Arnulf,24,1,25
144,2022.08.02,11:45:00,12:00:00,Arnulf,17,0,17
145,2022.08.02,12:00:00,12:15:00,Arnulf,39,1,40
146,2022.08.02,12:15:00,12:30:00,Arnulf,29,0,29
147,2022.08.02,12:30:00,12:45:00,Arnulf,26,2,28
148,2022.08.02,12:45:00,13:00:00,Arnulf,21,0,21
149,2022.08.02,13:00:00,13:15:00,Arnulf,29,1,30
150,2022.08.02,13:15:00,13:30:00,Arnulf,21,1,22
151,2022.08.02,13:30:00,13:45:00,Arnulf,20,2,22
152,2022.08.02,13:45:00,14:00:00,Arnulf,18,3,21
153,2022.08.02,14:00:00,14:15:00,Arnulf,11,4,15
154,2022.08.02,14:15:00,14:30:00,Arnulf,21,0,21
155,2022.08.02,14:30:00,14:45:00,Arnulf,26,1,27
156,2022.08.02,14:45:00,15:00:00,Arnulf,19,4,23
157,2022.08.02,15:00:00,15:15:00,Arnulf,33,0,33
158,2022.08.02,15:15:00,15:30:00,Arnulf,22,3,25
159,2022.08.02,15:30:00,15:45:00,Arnulf,22,0,22
160,2022.08.02,15:45:00,16:00:00,Arnulf,27,2,29
161,2022.08.02,16:00:00,16:15:00,Arnulf,33,2,35
162,2022.08.02,16:15:00,16:30:00,Arnulf,27,1,28
163,2022.08.02,16:30:00,16:45:00,Arnulf,35,3,38
164,2022.08.02,16:45:00,17:00:00,Arnulf,42,3,45
165,2022.08.02,17:00:00,17:15:00,Arnulf,46,1,47
166,2022.08.02,17:15:00,17:30:00,Arnulf,57,6,63
167,2022.08.02,17:30:00,17:45:00,Arnulf,64,2,66
168,2022.08.02,17:45:00,18:00:00,Arnulf,61,4,65
169,2022.08.02,18:00:00,18:15:00,Arnulf,85,3,88
170,2022.08.02,18:15:00,18:30:00,Arnulf,59,1,60
171,2022.08.02,18:30:00,18:45:00,Arnulf,62,0,62
172,2022.08.02,18:45:00,19:00:00,Arnulf,50,0,50
173,2022.08.02,19:00:00,19:15:00,Arnulf,43,3,46
174,2022.08.02,19:15:00,19:30:00,Arnulf,40,1,41
175,2022.08.02,19:30:00,19:45:00,Arnulf,34,1,35
176,2022.08.02,19:45:00,20:00:00,Arnulf,38,1,39
177,2022.08.02,20:00:00,20:15:00,Arnulf,24,2,26
178,2022.08.02,20:15:00,20:30:00,Arnulf,36,3,39
179,2022.08.02,20:30:00,20:45:00,Arnulf,33,3,36
180,2022.08.02,20:45:00,21:00:00,Arnulf,17,0,17
181,2022.08.02,21:00:00,21:15:00,Arnulf,27,2,29
182,2022.08.02,21:15:00,21:30:00,Arnulf,20,4,24
183,2022.08.02,21:30:00,21:45:00,Arnulf,22,2,24
184,2022.08.02,21:45:00,22:00:00,Arnulf,21,0,21
185,2022.08.02,22:00:00,22:15:00,Arnulf,22,1,23
186,2022.08.02,22:15:00,22:30:00,Arnulf,18,0,18
187,2022.08.02,22:30:00,22:45:00,Arnulf,20,0,20
188,2022.08.02,22:45:00,23:00:00,Arnulf,15,1,16
189,2022.08.02,23:00:00,23:15:00,Arnulf,18,0,18
190,2022.08.02,23:15:00,23:30:00,Arnulf,11,1,12
191,2022.08.02,23:30:00,23:45:00,Arnulf,9,0,9
192,2022.08.02,23:45:00,00:00:00,Arnulf,9,0,9
193,2022.08.03,00:00:00,00:15:00,Arnulf,7,0,7
194,2022.08.03,00:15:00,00:30:00,Arnulf,7,0,7
195,2022.08.03,00:30:00,00:45:00,Arnulf,6,0,6
196,2022.08.03,00:45:00,01:00:00,Arnulf,1,0,1
197,2022.08.03,01:00:00,01:15:00,Arnulf,1,0,1
198,2022.08.03,01:15:00,01:30:00,Arnulf,0,0,0
199,2022.08.03,01:30:00,01:45:00,Arnulf,2,1,3
200,2022.08.03,01:45:00,02:00:00,Arnulf,1,1,2
201,2022.08.03,02:00:00,02:15:00,Arnulf,0,0,0
202,2022.08.03,02:15:00,02:30:00,Arnulf,1,0,1
203,2022.08.03,02:30:00,02:45:00,Arnulf,0,1,1
204,2022.08.03,02:45:00,03:00:00,Arnulf,1,0,1
205,2022.08.03,03:00:00,03:15:00,Arnulf,4,0,4
206,2022.08.03,03:15:00,03:30:00,Arnulf,0,0,0
207,2022.08.03,03:30:00,03:45:00,Arnulf,1,0,1
208,2022.08.03,03:45:00,04:00:00,Arnulf,1,0,1
209,2022.08.03,04:00:00,04:15:00,Arnulf,1,0,1
210,2022.08.03,04:15:00,04:30:00,Arnulf,1,0,1
211,2022.08.03,04:30:00,04:45:00,Arnulf,2,0,2
212,2022.08.03,04:45:00,05:00:00,Arnulf,0,0,0
213,2022.08.03,05:00:00,05:15:00,Arnulf,2,0,2
214,2022.08.03,05:15:00,05:30:00,Arnulf,5,0,5
215,2022.08.03,05:30:00,05:45:00,Arnulf,6,0,6
216,2022.08.03,05:45:00,06:00:00,Arnulf,2,0,2
217,2022.08.03,06:00:00,06:15:00,Arnulf,7,0,7
218,2022.08.03,06:15:00,06:30:00,Arnulf,11,2,13
219,2022.08.03,06:30:00,06:45:00,Arnulf,16,1,17
220,2022.08.03,06:45:00,07:00:00,Arnulf,20,2,22
221,2022.08.03,07:00:00,07:15:00,Arnulf,27,1,28
222,2022.08.03,07:15:00,07:30:00,Arnulf,32,3,35
223,2022.08.03,07:30:00,07:45:00,Arnulf,42,0,42
224,2022.08.03,07:45:00,08:00:00,Arnulf,55,2,57
225,2022.08.03,08:00:00,08:15:00,Arnulf,55,3,58
226,2022.08.03,08:15:00,08:30:00,Arnulf,71,0,71
227,2022.08.03,08:30:00,08:45:00,Arnulf,73,2,75
228,2022.08.03,08:45:00,09:00:00,Arnulf,58,5,63
229,2022.08.03,09:00:00,09:15:00,Arnulf,49,2,51
230,2022.08.03,09:15:00,09:30:00,Arnulf,27,0,27
231,2022.08.03,09:30:00,09:45:00,Arnulf,27,0,27
232,2022.08.03,09:45:00,10:00:00,Arnulf,33,0,33
233,2022.08.03,10:00:00,10:15:00,Arnulf,27,1,28
234,2022.08.03,10:15:00,10:30:00,Arnulf,16,0,16
235,2022.08.03,10:30:00,10:45:00,Arnulf,21,1,22
236,2022.08.03,10:45:00,11:00:00,Arnulf,23,0,23
237,2022.08.03,11:00:00,11:15:00,Arnulf,29,0,29
238,2022.08.03,11:15:00,11:30:00,Arnulf,16,1,17
239,2022.08.03,11:30:00,11:45:00,Arnulf,14,1,15
240,2022.08.03,11:45:00,12:00:00,Arnulf,25,2,27
241,2022.08.03,12:00:00,12:15:00,Arnulf,24,0,24
242,2022.08.03,12:15:00,12:30:00,Arnulf,24,1,25
243,2022.08.03,12:30:00,12:45:00,Arnulf,20,4,24
244,2022.08.03,12:45:00,13:00:00,Arnulf,18,1,19
245,2022.08.03,13:00:00,13:15:00,Arnulf,27,0,27
246,2022.08.03,13:15:00,13:30:00,Arnulf,23,0,23
247,2022.08.03,13:30:00,13:45:00,Arnulf,22,0,22
248,2022.08.03,13:45:00,14:00:00,Arnulf,16,2,18
249,2022.08.03,14:00:00,14:15:00,Arnulf,22,0,22
250,2022.08.03,14:15:00,14:30:00,Arnulf,20,3,23
251,2022.08.03,14:30:00,14:45:00,Arnulf,13,2,15
252,2022.08.03,14:45:00,15:00:00,Arnulf,13,0,13
253,2022.08.03,15:00:00,15:15:00,Arnulf,21,0,21
254,2022.08.03,15:15:00,15:30:00,Arnulf,21,1,22
255,2022.08.03,15:30:00,15:45:00,Arnulf,18,3,21
256,2022.08.03,15:45:00,16:00:00,Arnulf,30,4,34
257,2022.08.03,16:00:00,16:15:00,Arnulf,29,0,29
258,2022.08.03,16:15:00,16:30:00,Arnulf,29,2,31
259,2022.08.03,16:30:00,16:45:00,Arnulf,34,6,40
260,2022.08.03,16:45:00,17:00:00,Arnulf,32,0,32
261,2022.08.03,17:00:00,17:15:00,Arnulf,47,4,51
262,2022.08.03,17:15:00,17:30:00,Arnulf,52,2,54
263,2022.08.03,17:30:00,17:45:00,Arnulf,66,1,67
264,2022.08.03,17:45:00,18:00:00,Arnulf,71,4,75
265,2022.08.03,18:00:00,18:15:00,Arnulf,61,3,64
266,2022.08.03,18:15:00,18:30:00,Arnulf,64,0,64
267,2022.08.03,18:30:00,18:45:00,Arnulf,55,3,58
268,2022.08.03,18:45:00,19:00:00,Arnulf,33,2,35
269,2022.08.03,19:00:00,19:15:00,Arnulf,48,0,48
270,2022.08.03,19:15:00,19:30:00,Arnulf,53,3,56
271,2022.08.03,19:30:00,19:45:00,Arnulf,37,1,38
272,2022.08.03,19:45:00,20:00:00,Arnulf,28,2,30
273,2022.08.03,20:00:00,20:15:00,Arnulf,34,2,36
274,2022.08.03,20:15:00,20:30:00,Arnulf,23,1,24
275,2022.08.03,20:30:00,20:45:00,Arnulf,34,1,35
276,2022.08.03,20:45:00,21:00:00,Arnulf,22,1,23
277,2022.08.03,21:00:00,21:15:00,Arnulf,24,0,24
278,2022.08.03,21:15:00,21:30:00,Arnulf,31,0,31
279,2022.08.03,21:30:00,21:45:00,Arnulf,15,1,16
280,2022.08.03,21:45:00,22:00:00,Arnulf,18,2,20
281,2022.08.03,22:00:00,22:15:00,Arnulf,27,0,27
282,2022.08.03,22:15:00,22:30:00,Arnulf,28,0,28
283,2022.08.03,22:30:00,22:45:00,Arnulf,21,2,23
284,2022.08.03,22:45:00,23:00:00,Arnulf,13,0,13
285,2022.08.03,23:00:00,23:15:00,Arnulf,23,0,23
286,2022.08.03,23:15:00,23:30:00,Arnulf,13,4,17
287,2022.08.03,23:30:00,23:45:00,Arnulf,14,0,14
288,2022.08.03,23:45:00,00:00:00,Arnulf,14,0,14
289,2022.08.04,00:00:00,00:15:00,Arnulf,16,1,17
290,2022.08.04,00:15:00,00:30:00,Arnulf,4,0,4
291,2022.08.04,00:30:00,00:45:00,Arnulf,8,0,8
292,2022.08.04,00:45:00,01:00:00,Arnulf,4,1,5
293,2022.08.04,01:00:00,01:15:00,Arnulf,1,0,1
294,2022.08.04,01:15:00,01:30:00,Arnulf,1,0,1
295,2022.08.04,01:30:00,01:45:00,Arnulf,1,0,1
296,2022.08.04,01:45:00,02:00:00,Arnulf,0,0,0
297,2022.08.04,02:00:00,02:15:00,Arnulf,0,0,0
298,2022.08.04,02:15:00,02:30:00,Arnulf,2,0,2
299,2022.08.04,02:30:00,02:45:00,Arnulf,2,0,2
300,2022.08.04,02:45:00,03:00:00,Arnulf,0,0,0
301,2022.08.04,03:00:00,03:15:00,Arnulf,0,0,0
302,2022.08.04,03:15:00,03:30:00,Arnulf,1,0,1
303,2022.08.04,03:30:00,03:45:00,Arnulf,2,0,2
304,2022.08.04,03:45:00,04:00:00,Arnulf,1,0,1
305,2022.08.04,04:00:00,04:15:00,Arnulf,4,0,4
306,2022.08.04,04:15:00,04:30:00,Arnulf,0,0,0
307,2022.08.04,04:30:00,04:45:00,Arnulf,0,0,0
308,2022.08.04,04:45:00,05:00:00,Arnulf,1,1,2
309,2022.08.04,05:00:00,05:15:00,Arnulf,1,0,1
310,2022.08.04,05:15:00,05:30:00,Arnulf,3,0,3
311,2022.08.04,05:30:00,05:45:00,Arnulf,6,0,6
312,2022.08.04,05:45:00,06:00:00,Arnulf,6,0,6
313,2022.08.04,06:00:00,06:15:00,Arnulf,4,1,5
314,2022.08.04,06:15:00,06:30:00,Arnulf,9,2,11
315,2022.08.04,06:30:00,06:45:00,Arnulf,14,0,14
316,2022.08.04,06:45:00,07:00:00,Arnulf,11,1,12
317,2022.08.04,07:00:00,07:15:00,Arnulf,11,0,11
318,2022.08.04,07:15:00,07:30:00,Arnulf,26,0,26
319,2022.08.04,07:30:00,07:45:00,Arnulf,38,4,42
320,2022.08.04,07:45:00,08:00:00,Arnulf,42,4,46
321,2022.08.04,08:00:00,08:15:00,Arnulf,36,4,40
322,2022.08.04,08:15:00,08:30:00,Arnulf,60,1,61
323,2022.08.04,08:30:00,08:45:00,Arnulf,62,0,62
324,2022.08.04,08:45:00,09:00:00,Arnulf,56,0,56
325,2022.08.04,09:00:00,09:15:00,Arnulf,53,1,54
326,2022.08.04,09:15:00,09:30:00,Arnulf,36,1,37
327,2022.08.04,09:30:00,09:45:00,Arnulf,33,1,34
328,2022.08.04,09:45:00,10:00:00,Arnulf,25,1,26
329,2022.08.04,10:00:00,10:15:00,Arnulf,20,1,21
330,2022.08.04,10:15:00,10:30:00,Arnulf,22,2,24
331,2022.08.04,10:30:00,10:45:00,Arnulf,34,0,34
332,2022.08.04,10:45:00,11:00:00,Arnulf,24,0,24
333,2022.08.04,11:00:00,11:15:00,Arnulf,16,1,17
334,2022.08.04,11:15:00,11:30:00,Arnulf,21,1,22
335,2022.08.04,11:30:00,11:45:00,Arnulf,20,0,20
336,2022.08.04,11:45:00,12:00:00,Arnulf,26,2,28
337,2022.08.04,12:00:00,12:15:00,Arnulf,16,0,16
338,2022.08.04,12:15:00,12:30:00,Arnulf,18,2,20
339,2022.08.04,12:30:00,12:45:00,Arnulf,13,2,15
340,2022.08.04,12:45:00,13:00:00,Arnulf,25,0,25
341,2022.08.04,13:00:00,13:15:00,Arnulf,20,2,22
342,2022.08.04,13:15:00,13:30:00,Arnulf,18,1,19
343,2022.08.04,13:30:00,13:45:00,Arnulf,17,2,19
344,2022.08.04,13:45:00,14:00:00,Arnulf,22,4,26
345,2022.08.04,14:00:00,14:15:00,Arnulf,14,0,14
346,2022.08.04,14:15:00,14:30:00,Arnulf,14,2,16
347,2022.08.04,14:30:00,14:45:00,Arnulf,24,1,25
348,2022.08.04,14:45:00,15:00:00,Arnulf,20,1,21
349,2022.08.04,15:00:00,15:15:00,Arnulf,25,1,26
350,2022.08.04,15:15:00,15:30:00,Arnulf,25,4,29
351,2022.08.04,15:30:00,15:45:00,Arnulf,40,3,43
352,2022.08.04,15:45:00,16:00:00,Arnulf,31,1,32
353,2022.08.04,16:00:00,16:15:00,Arnulf,26,3,29
354,2022.08.04,16:15:00,16:30:00,Arnulf,49,1,50
355,2022.08.04,16:30:00,16:45:00,Arnulf,45,1,46
356,2022.08.04,16:45:00,17:00:00,Arnulf,38,5,43
357,2022.08.04,17:00:00,17:15:00,Arnulf,43,1,44
358,2022.08.04,17:15:00,17:30:00,Arnulf,41,2,43
359,2022.08.04,17:30:00,17:45:00,Arnulf,50,0,50
360,2022.08.04,17:45:00,18:00:00,Arnulf,67,0,67
361,2022.08.04,18:00:00,18:15:00,Arnulf,51,0,51
362,2022.08.04,18:15:00,18:30:00,Arnulf,56,3,59
363,2022.08.04,18:30:00,18:45:00,Arnulf,74,1,75
364,2022.08.04,18:45:00,19:00:00,Arnulf,71,4,75
365,2022.08.04,19:00:00,19:15:00,Arnulf,40,1,41
366,2022.08.04,19:15:00,19:30:00,Arnulf,38,2,40
367,2022.08.04,19:30:00,19:45:00,Arnulf,37,1,38
368,2022.08.04,19:45:00,20:00:00,Arnulf,40,1,41
369,2022.08.04,20:00:00,20:15:00,Arnulf,20,2,22
370,2022.08.04,20:15:00,20:30:00,Arnulf,24,2,26
371,2022.08.04,20:30:00,20:45:00,Arnulf,28,1,29
372,2022.08.04,20:45:00,21:00:00,Arnulf,19,0,19
373,2022.08.04,21:00:00,21:15:00,Arnulf,29,3,32
374,2022.08.04,21:15:00,21:30:00,Arnulf,11,2,13
375,2022.08.04,21:30:00,21:45:00,Arnulf,23,2,25
376,2022.08.04,21:45:00,22:00:00,Arnulf,26,0,26
377,2022.08.04,22:00:00,22:15:00,Arnulf,20,3,23
378,2022.08.04,22:15:00,22:30:00,Arnulf,25,1,26
379,2022.08.04,22:30:00,22:45:00,Arnulf,15,3,18
380,2022.08.04,22:45:00,23:00:00,Arnulf,28,0,28
381,2022.08.04,23:00:00,23:15:00,Arnulf,19,1,20
382,2022.08.04,23:15:00,23:30:00,Arnulf,13,1,14
383,2022.08.04,23:30:00,23:45:00,Arnulf,30,0,30
384,2022.08.04,23:45:00,00:00:00,Arnulf,23,1,24
385,2022.08.05,00:00:00,00:15:00,Arnulf,18,0,18
386,2022.08.05,00:15:00,00:30:00,Arnulf,11,0,11
387,2022.08.05,00:30:00,00:45:00,Arnulf,7,1,8
388,2022.08.05,00:45:00,01:00:00,Arnulf,5,1,6
389,2022.08.05,01:00:00,01:15:00,Arnulf,5,0,5
390,2022.08.05,01:15:00,01:30:00,Arnulf,1,0,1
391,2022.08.05,01:30:00,01:45:00,Arnulf,4,0,4
392,2022.08.05,01:45:00,02:00:00,Arnulf,1,2,3
393,2022.08.05,02:00:00,02:15:00,Arnulf,1,1,2
394,2022.08.05,02:15:00,02:30:00,Arnulf,0,0,0
395,2022.08.05,02:30:00,02:45:00,Arnulf,0,0,0
396,2022.08.05,02:45:00,03:00:00,Arnulf,8,0,8
397,2022.08.05,03:00:00,03:15:00,Arnulf,2,0,2
398,2022.08.05,03:15:00,03:30:00,Arnulf,1,0,1
399,2022.08.05,03:30:00,03:45:00,Arnulf,1,0,1
400,2022.08.05,03:45:00,04:00:00,Arnulf,2,0,2
401,2022.08.05,04:00:00,04:15:00,Arnulf,1,0,1
402,2022.08.05,04:15:00,04:30:00,Arnulf,0,3,3
403,2022.08.05,04:30:00,04:45:00,Arnulf,0,0,0
404,2022.08.05,04:45:00,05:00:00,Arnulf,3,1,4
405,2022.08.05,05:00:00,05:15:00,Arnulf,1,0,1
406,2022.08.05,05:15:00,05:30:00,Arnulf,5,2,7
407,2022.08.05,05:30:00,05:45:00,Arnulf,8,1,9
408,2022.08.05,05:45:00,06:00:00,Arnulf,6,0,6
409,2022.08.05,06:00:00,06:15:00,Arnulf,3,0,3
410,2022.08.05,06:15:00,06:30:00,Arnulf,5,0,5
411,2022.08.05,06:30:00,06:45:00,Arnulf,11,0,11
412,2022.08.05,06:45:00,07:00:00,Arnulf,19,0,19
413,2022.08.05,07:00:00,07:15:00,Arnulf,17,1,18
414,2022.08.05,07:15:00,07:30:00,Arnulf,22,2,24
415,2022.08.05,07:30:00,07:45:00,Arnulf,28,0,28
416,2022.08.05,07:45:00,08:00:00,Arnulf,30,2,32
417,2022.08.05,08:00:00,08:15:00,Arnulf,26,0,26
418,2022.08.05,08:15:00,08:30:00,Arnulf,50,1,51
419,2022.08.05,08:30:00,08:45:00,Arnulf,36,0,36
420,2022.08.05,08:45:00,09:00:00,Arnulf,40,1,41
421,2022.08.05,09:00:00,09:15:00,Arnulf,41,1,42
422,2022.08.05,09:15:00,09:30:00,Arnulf,34,0,34
423,2022.08.05,09:30:00,09:45:00,Arnulf,26,0,26
424,2022.08.05,09:45:00,10:00:00,Arnulf,18,0,18
425,2022.08.05,10:00:00,10:15:00,Arnulf,13,1,14
426,2022.08.05,10:15:00,10:30:00,Arnulf,19,0,19
427,2022.08.05,10:30:00,10:45:00,Arnulf,14,1,15
428,2022.08.05,10:45:00,11:00:00,Arnulf,17,0,17
429,2022.08.05,11:00:00,11:15:00,Arnulf,22,0,22
430,2022.08.05,11:15:00,11:30:00,Arnulf,14,2,16
431,2022.08.05,11:30:00,11:45:00,Arnulf,27,0,27
432,2022.08.05,11:45:00,12:00:00,Arnulf,23,1,24
433,2022.08.05,12:00:00,12:15:00,Arnulf,16,1,17
434,2022.08.05,12:15:00,12:30:00,Arnulf,23,3,26
435,2022.08.05,12:30:00,12:45:00,Arnulf,20,3,23
436,2022.08.05,12:45:00,13:00:00,Arnulf,19,2,21
437,2022.08.05,13:00:00,13:15:00,Arnulf,18,0,18
438,2022.08.05,13:15:00,13:30:00,Arnulf,24,2,26
439,2022.08.05,13:30:00,13:45:00,Arnulf,23,3,26
440,2022.08.05,13:45:00,14:00:00,Arnulf,16,4,20
441,2022.08.05,14:00:00,14:15:00,Arnulf,24,2,26
442,2022.08.05,14:15:00,14:30:00,Arnulf,32,1,33
443,2022.08.05,14:30:00,14:45:00,Arnulf,28,4,32
444,2022.08.05,14:45:00,15:00:00,Arnulf,30,0,30
445,2022.08.05,15:00:00,15:15:00,Arnulf,18,1,19
446,2022.08.05,15:15:00,15:30:00,Arnulf,21,1,22
447,2022.08.05,15:30:00,15:45:00,Arnulf,25,3,28
448,2022.08.05,15:45:00,16:00:00,Arnulf,28,2,30
449,2022.08.05,16:00:00,16:15:00,Arnulf,21,1,22
450,2022.08.05,16:15:00,16:30:00,Arnulf,32,1,33
451,2022.08.05,16:30:00,16:45:00,Arnulf,24,3,27
452,2022.08.05,16:45:00,17:00:00,Arnulf,30,3,33
453,2022.08.05,17:00:00,17:15:00,Arnulf,45,1,46
454,2022.08.05,17:15:00,17:30:00,Arnulf,31,0,31
455,2022.08.05,17:30:00,17:45:00,Arnulf,33,1,34
456,2022.08.05,17:45:00,18:00:00,Arnulf,41,1,42
457,2022.08.05,18:00:00,18:15:00,Arnulf,35,0,35
458,2022.08.05,18:15:00,18:30:00,Arnulf,37,2,39
459,2022.08.05,18:30:00,18:45:00,Arnulf,32,0,32
460,2022.08.05,18:45:00,19:00:00,Arnulf,48,1,49
461,2022.08.05,19:00:00,19:15:00,Arnulf,17,2,19
462,2022.08.05,19:15:00,19:30:00,Arnulf,18,2,20
463,2022.08.05,19:30:00,19:45:00,Arnulf,17,2,19
464,2022.08.05,19:45:00,20:00:00,Arnulf,17,0,17
465,2022.08.05,20:00:00,20:15:00,Arnulf,26,1,27
466,2022.08.05,20:15:00,20:30:00,Arnulf,20,1,21
467,2022.08.05,20:30:00,20:45:00,Arnulf,17,0,17
468,2022.08.05,20:45:00,21:00:00,Arnulf,11,0,11
469,2022.08.05,21:00:00,21:15:00,Arnulf,23,0,23
470,2022.08.05,21:15:00,21:30:00,Arnulf,10,3,13
471,2022.08.05,21:30:00,21:45:00,Arnulf,8,0,8
472,2022.08.05,21:45:00,22:00:00,Arnulf,3,0,3
473,2022.08.05,22:00:00,22:15:00,Arnulf,1,0,1
474,2022.08.05,22:15:00,22:30:00,Arnulf,6,0,6
475,2022.08.05,22:30:00,22:45:00,Arnulf,2,0,2
476,2022.08.05,22:45:00,23:00:00,Arnulf,7,2,9
477,2022.08.05,23:00:00,23:15:00,Arnulf,11,2,13
478,2022.08.05,23:15:00,23:30:00,Arnulf,4,0,4
479,2022.08.05,23:30:00,23:45:00,Arnulf,10,3,13
480,2022.08.05,23:45:00,00:00:00,Arnulf,2,0,2
481,2022.08.06,00:00:00,00:15:00,Arnulf,2,0,2
482,2022.08.06,00:15:00,00:30:00,Arnulf,1,0,1
483,2022.08.06,00:30:00,00:45:00,Arnulf,7,0,7
484,2022.08.06,00:45:00,01:00:00,Arnulf,6,1,7
485,2022.08.06,01:00:00,01:15:00,Arnulf,2,0,2
486,2022.08.06,01:15:00,01:30:00,Arnulf,2,2,4
487,2022.08.06,01:30:00,01:45:00,Arnulf,2,0,2
488,2022.08.06,01:45:00,02:00:00,Arnulf,2,1,3
489,2022.08.06,02:00:00,02:15:00,Arnulf,1,1,2
490,2022.08.06,02:15:00,02:30:00,Arnulf,1,1,2
491,2022.08.06,02:30:00,02:45:00,Arnulf,1,0,1
492,2022.08.06,02:45:00,03:00:00,Arnulf,2,0,2
493,2022.08.06,03:00:00,03:15:00,Arnulf,1,0,1
494,2022.08.06,03:15:00,03:30:00,Arnulf,1,0,1
495,2022.08.06,03:30:00,03:45:00,Arnulf,1,0,1
496,2022.08.06,03:45:00,04:00:00,Arnulf,0,0,0
497,2022.08.06,04:00:00,04:15:00,Arnulf,1,0,1
498,2022.08.06,04:15:00,04:30:00,Arnulf,0,0,0
499,2022.08.06,04:30:00,04:45:00,Arnulf,1,0,1
500,2022.08.06,04:45:00,05:00:00,Arnulf,0,0,0
501,2022.08.06,05:00:00,05:15:00,Arnulf,0,0,0
502,2022.08.06,05:15:00,05:30:00,Arnulf,2,0,2
503,2022.08.06,05:30:00,05:45:00,Arnulf,1,0,1
504,2022.08.06,05:45:00,06:00:00,Arnulf,2,0,2
505,2022.08.06,06:00:00,06:15:00,Arnulf,4,1,5
506,2022.08.06,06:15:00,06:30:00,Arnulf,4,0,4
507,2022.08.06,06:30:00,06:45:00,Arnulf,1,0,1